Home > Weather > Steyr > Past weeks

Flag for Austria Past Weather in Steyr, Upper Austria, Austria — Yesterday and Last 2 Weeks

Now
63 °F

Mild.


Feels Like: 63 °F
Forecast: 55 / 75 °F
Wind: 3 mph from Southwest

Location: Kremsmuenster

Current Time: Jun 27, 2016 at 10:34:34 PM

Latest Report: Jun 27, 2016 at 9:00 PM


Visibility: N/A

Pressure: 30.10 "Hg

Humidity: 69%

Dew Point: 53 °F

Location of SteyrLocation

Past Weather in Steyr — Graph

°F

Steyr Temperature Yesterday

Maximum temperature yesterday: 71 °F (at 2:00 PM)
Minimum temperature yesterday: 60 °F (at 11:00 PM)
Average temperature yesterday: 66 °F

High & Low Weather Summary for the Past Weeks

 TemperatureHumidityPressure
High89 °F (Jun 24, 3:00 PM)94% (Jun 21, 6:00 AM)30.29 "Hg (Jun 21, 6:00 AM)
Low52 °F (Jun 21, 6:00 AM)38% (Jun 16, 3:00 PM)29.44 "Hg (Jun 16, 5:00 PM)
Average66 °F73%29.95 "Hg
* Reported Jun 12 9:00 PM — Jun 27 9:00 PM, Steyr, Weather by CustomWeather, © 2016

Note: Actual official high and low records may vary slightly from our data, if they occured in-between our weather recording intervals... More about our weather records

Advertising

Steyr Weather History for the Previous 24 Hours

Scroll right to see more
 ConditionsComfort  
Time TempWeatherWind HumidityBarometerVisibility
9:00 PM
Mon, Jun 27
63 °FMild.3 mph69%30.10 "HgN/A
8:00 PM65 °FScattered clouds.5 mph67%30.10 "Hg17 mi
7:00 PM62 °FMild.5 mph67%30.11 "HgN/A
6:00 PM67 °FMild.5 mph62%30.10 "HgN/A
5:00 PM67 °FMild.3 mph68%30.10 "HgN/A
4:00 PM62 °FMild.1 mph81%30.12 "HgN/A
3:00 PM65 °FMild.2 mph67%30.12 "HgN/A
2:00 PM64 °FMild.2 mph73%30.14 "HgN/A
1:00 PM61 °FCool.1 mph83%30.18 "HgN/A
12:00 PM61 °FCool.2 mph80%30.18 "HgN/A
11:00 AM60 °FLight rain. Low clouds.5 mph82%30.17 "Hg12 mi
10:00 AM58 °FCool.5 mph88%30.18 "HgN/A
9:00 AM58 °FCool.3 mph90%30.18 "HgN/A
8:00 AM56 °FCool.5 mph92%30.17 "HgN/A
7:00 AM56 °FCool.5 mph92%30.17 "HgN/A
6:00 AM56 °FCool.5 mph93%30.16 "HgN/A
5:00 AM57 °FCool.7 mph91%30.12 "HgN/A
4:00 AM57 °FCool.7 mph89%30.10 "HgN/A
3:00 AM58 °FFog.6 mph89%30.09 "HgN/A
2:00 AM58 °FCool.5 mph89%30.10 "HgN/A
1:00 AM57 °FCool.6 mph91%30.11 "HgN/A
12:00 AM58 °FCool.6 mph90%30.11 "HgN/A
11:00 PM
Sun, Jun 26
60 °FFog.6 mph88%30.10 "HgN/A
10:00 PM64 °FMild.5 mph73%30.08 "HgN/A
Weather by CustomWeather, © 2016

See weather overviewHow to use our weather pages